EW4713 Weather Reports


Display with metric or nautical units.
time (UTC)temp
F
wind
direction
speed
MPH
gust
MPH
rain 1hr
in
rain 24hr
in
rain mn
in
humidity
%
barometer
mb
20260505153230 32 133 3.0 8.0 0.00 0.00 0.00 71 1010.5
20260505152732 33 99 2.0 6.0 0.00 0.00 0.00 70 1010.3
20260505152229 33 90 2.0 7.0 0.00 0.00 0.00 70 1010.1
20260505151230 33 135 2.0 7.0 0.00 0.00 0.00 69 1010.0
20260505150731 33 197 2.0 7.0 0.00 0.00 0.00 69 1010.0
20260505140229 32 95 2.0 6.0 0.00 0.00 0.00 72 1009.7
20260505130214 30 221 0.0 10.0 0.00 0.00 0.00 78 1009.1
20260505124715 30 144 2.0 8.0 0.00 0.00 0.00 79 1008.6
20260505123714 30 68 3.0 8.0 0.00 0.00 0.00 80 1008.6
20260505123213 30 156 4.0 6.0 0.00 0.00 0.00 78 1008.5
20260505122714 30 86 2.0 6.0 0.00 0.00 0.00 78 1008.8
20260505122231 30 165 2.0 7.0 0.00 0.00 0.00 78 1008.5
20260505121715 30 130 3.0 7.0 0.00 0.00 0.00 78 1008.6
20260505121213 30 112 2.0 7.0 0.00 0.00 0.00 79 1008.3
20260505120714 30 109 3.0 7.0 0.00 0.00 0.00 77 1008.5
20260505120212 30 180 2.0 8.0 0.00 0.00 0.00 77 1008.3
20260505115715 30 175 1.0 8.0 0.00 0.00 0.00 77 1008.4
20260505115212 30 138 3.0 5.0 0.00 0.00 0.00 78 1008.3
20260505114714 30 131 3.0 6.0 0.00 0.00 0.00 78 1008.3
20260505113714 30 157 1.0 9.0 0.00 0.00 0.00 78 1008.5
20260505113213 30 135 2.0 9.0 0.00 0.00 0.00 78 1008.2
20260505112714 30 96 3.0 6.0 0.00 0.00 0.00 78 1008.2
20260505112214 30 145 1.0 6.0 0.00 0.00 0.00 78 1008.0
20260505111716 30 160 0.0 5.0 0.00 0.00 0.00 78 1008.1
20260505111212 30 166 1.0 5.0 0.00 0.00 0.00 78 1008.2
20260505110715 30 131 1.0 7.0 0.00 0.00 0.00 78 1008.3
20260505110212 30 63 1.0 7.0 0.00 0.00 0.00 79 1008.1
20260505102208 30 159 3.0 5.0 0.00 0.00 0.00 80 1007.8
20260505101711 29 121 2.0 5.0 0.00 0.00 0.00 80 1007.8
20260505101209 30 114 0.0 5.0 0.00 0.00 0.00 80 1007.9
20260505100704 29 119 4.0 4.0 0.00 0.00 0.00 81 1007.8
20260505100201 29 157 1.0 5.0 0.00 0.00 0.00 81 1008.1
20260505095704 29 75 0.0 8.0 0.00 0.00 0.00 81 1007.8
20260505095203 29 102 2.0 8.0 0.00 0.00 0.00 81 1007.8
20260505094703 29 108 4.0 5.0 0.00 0.00 0.00 81 1007.9
20260505093703 30 151 1.0 6.0 0.00 0.00 0.00 80 1007.7
20260505093203 29 70 3.0 5.0 0.00 0.00 0.00 81 1007.9
20260505092704 30 108 2.0 5.0 0.00 0.00 0.00 81 1007.6
20260505091703 29 99 2.0 5.0 0.00 0.00 0.00 81 1008.0
20260505091204 29 103 2.0 5.0 0.00 0.00 0.00 81 1007.8
20260505090705 29 151 2.0 4.0 0.00 0.00 0.00 81 1007.4
20260505090206 29 120 3.0 4.0 0.00 0.00 0.00 81 1007.7
20260505085705 30 117 2.0 4.0 0.00 0.00 0.00 81 1007.7
20260505085203 29 158 4.0 4.0 0.00 0.00 0.00 80 1007.5
20260505084204 29 105 2.0 4.0 0.00 0.00 0.00 81 1007.7
20260505083706 30 135 3.0 5.0 0.00 0.00 0.00 81 1007.4
20260505082706 30 112 0.0 8.0 0.00 0.00 0.00 81 1007.6
20260505082156 29 126 1.0 8.0 0.00 0.00 0.00 81 1007.4
20260505081653 29 161 3.0 5.0 0.00 0.00 0.00 81 1007.6
20260505081154 30 90 0.0 5.0 0.00 0.00 0.00 82 1007.5
20260505080145 30 103 1.0 5.0 0.00 0.00 0.00 81 1007.4
20260505075648 29 120 1.0 5.0 0.00 0.00 0.00 82 1007.2
20260505075140 29 96 1.0 7.0 0.00 0.00 0.00 82 1007.4
20260505074637 29 148 0.0 7.0 0.00 0.00 0.00 83 1007.3
20260505074136 29 180 3.0 6.0 0.00 0.00 0.00 82 1007.2
20260505073637 29 105 0.0 6.0 0.00 0.00 0.00 83 1007.2
20260505073136 29 90 3.0 4.0 0.00 0.00 0.00 84 1007.3
20260505072638 29 144 2.0 4.0 0.00 0.00 0.00 85 1007.2
20260505072135 28 98 0.0 4.0 0.00 0.00 0.00 86 1007.1
20260505071635 28 95 2.0 4.0 0.00 0.00 0.00 86 1007.2
20260505070635 28 90 2.0 3.0 0.00 0.00 0.00 85 1007.0
20260505070135 29 90 0.0 4.0 0.00 0.00 0.00 85 1007.2
20260505065137 29 96 4.0 4.0 0.00 0.00 0.00 85 1007.3
20260505064636 29 103 0.0 3.0 0.00 0.00 0.00 85 1007.2
20260505064135 29 114 1.0 3.0 0.00 0.00 0.00 84 1007.3
20260505063632 29 83 1.0 3.0 0.00 0.00 0.00 83 1007.3
20260505063130 29 105 0.0 4.0 0.00 0.00 0.00 82 1007.3
20260505062631 30 160 2.0 4.0 0.00 0.00 0.00 82 1007.4
20260505062129 30 100 2.0 3.0 0.00 0.00 0.00 82 1007.2
20260505061629 30 117 2.0 5.0 0.00 0.00 0.00 81 1007.1
20260505061129 30 90 1.0 7.0 0.00 0.00 0.00 81 1007.2
20260505060629 30 117 1.0 7.0 0.00 0.00 0.00 81 1007.2
20260505060129 31 104 4.0 5.0 0.00 0.00 0.00 80 1007.2
20260505055631 31 117 0.0 6.0 0.00 0.00 0.00 79 1007.2
20260505055131 31 146 2.0 6.0 0.00 0.00 0.00 80 1007.2
20260505054632 31 105 1.0 4.0 0.00 0.00 0.00 82 1007.4
20260505053130 30 117 1.0 5.0 0.00 0.00 0.00 83 1007.3
20260505052629 31 124 2.0 4.0 0.00 0.00 0.00 83 1007.4
20260505052129 30 95 2.0 3.0 0.00 0.00 0.00 83 1007.2
20260505051630 30 139 2.0 3.0 0.00 0.00 0.00 83 1007.1
20260505051129 31 96 1.0 6.0 0.00 0.00 0.00 82 1007.0
20260505050629 31 101 2.0 6.0 0.00 0.00 0.00 81 1006.9
20260505050128 31 90 2.0 4.0 0.00 0.00 0.00 81 1007.0
20260505041631 33 103 2.0 6.0 0.00 0.00 0.00 76 1006.9
20260505040629 33 121 3.0 6.0 0.00 0.00 0.00 76 1006.7
20260505040130 33 158 3.0 6.0 0.00 0.00 0.00 76 1006.6
20260505035633 33 176 2.0 5.0 0.00 0.00 0.00 76 1006.7
20260505035132 33 142 3.0 5.0 0.00 0.00 0.00 76 1006.8
20260505034632 33 180 2.0 3.0 0.00 0.00 0.00 76 1006.4
20260505033128 34 155 3.0 5.0 0.00 0.00 0.00 73 1006.3
20260505032617 34 145 4.0 6.0 0.00 0.00 0.00 72 1006.5
20260505031617 35 163 3.0 6.0 0.00 0.00 0.00 71 1006.4
20260505031112 35 153 3.0 6.0 0.00 0.00 0.00 71 1006.6
20260505030613 35 168 1.0 6.0 0.00 0.00 0.00 70 1006.4
20260505030111 35 120 1.0 8.0 0.00 0.00 0.00 71 1006.5
20260505025606 35 187 1.0 8.0 0.00 0.00 0.00 71 1006.3
20260505025104 35 125 2.0 11.0 0.00 0.00 0.00 70 1006.3
20260505024603 36 153 4.0 11.0 0.00 0.00 0.00 69 1006.0
20260505024103 36 158 4.0 8.0 0.00 0.00 0.00 68 1006.1
20260505023603 36 121 4.0 8.0 0.00 0.00 0.00 67 1005.8
20260505023104 36 138 6.0 7.0 0.00 0.00 0.00 67 1005.6
20260505022604 37 143 2.0 6.0 0.00 0.00 0.00 67 1005.7
20260505022104 37 122 4.0 7.0 0.00 0.00 0.00 67 1005.6
20260505021603 37 180 1.0 7.0 0.00 0.00 0.00 67 1005.7
20260505021104 37 188 3.0 7.0 0.00 0.00 0.00 66 1005.5
20260505020604 37 164 4.0 5.0 0.00 0.00 0.00 65 1005.5
20260505020105 38 169 4.0 10.0 0.00 0.00 0.00 65 1005.3
20260505015602 38 178 3.0 10.0 0.00 0.00 0.00 65 1005.5
20260505015102 38 189 2.0 9.0 0.00 0.00 0.00 65 1005.1
20260505014601 38 90 1.0 9.0 0.00 0.00 0.00 64 1005.2
20260505013601 39 115 2.0 8.0 0.00 0.00 0.00 61 1004.8
20260505013100 40 82 4.0 7.0 0.00 0.00 0.00 59 1004.7
20260505012602 40 147 0.0 6.0 0.00 0.00 0.00 57 1004.5
20260505011601 40 124 2.0 11.0 0.00 0.00 0.00 56 1004.4
20260505011101 40 120 1.0 12.0 0.00 0.00 0.00 55 1004.2
20260505005101 41 141 4.0 9.0 0.00 0.00 0.00 52 1004.1
20260505004101 42 166 4.0 16.0 0.00 0.00 0.00 51 1004.1
20260505003602 42 122 7.0 12.0 0.00 0.00 0.00 51 1004.2
20260505003100 43 145 3.0 12.0 0.00 0.00 0.00 51 1004.2
20260505002601 42 142 6.0 11.0 0.00 0.00 0.00 51 1004.1
20260505002101 42 163 4.0 6.0 0.00 0.00 0.00 52 1003.9
20260505001601 43 165 3.0 7.0 0.00 0.00 0.00 51 1003.9
20260505001101 43 152 2.0 10.0 0.00 0.00 0.00 50 1003.5
20260505000601 43 131 3.0 10.0 0.00 0.00 0.00 53 1003.5
20260505000100 44 82 5.0 11.0 0.00 0.00 0.00 51 1003.6
20260504235602 44 115 5.0 11.0 0.00 0.00 0.00 51 1003.4
20260504234602 45 165 4.0 9.0 0.00 0.00 0.00 50 1003.5
20260504233101 43 151 5.0 13.0 0.00 0.00 0.00 51 1003.7
20260504232600 43 84 2.0 13.0 0.00 0.00 0.00 50 1003.7
20260504232100 45 101 13.0 13.0 0.00 0.00 0.00 49 1003.9
20260504231603 43 166 4.0 12.0 0.00 0.00 0.00 52 1003.5
20260504231112 43 134 4.0 12.0 0.00 0.00 0.00 51 1003.2
20260504230603 45 99 0.0 11.0 0.00 0.00 0.00 50 1003.4
20260504230101 44 120 3.0 14.0 0.00 0.00 0.00 53 1003.4
20260504225601 44 180 4.0 14.0 0.00 0.00 0.00 53 1003.3
20260504225100 44 173 2.0 14.0 0.00 0.00 0.00 52 1003.2
20260504224602 44 110 4.0 15.0 0.00 0.00 0.00 53 1003.3
20260504224101 45 99 4.0 19.0 0.00 0.00 0.00 52 1002.9
20260504223601 44 150 2.0 19.0 0.00 0.00 0.00 52 1003.0
20260504222601 42 134 4.0 13.0 0.00 0.00 0.00 54 1003.1
20260504222100 43 95 0.0 13.0 0.00 0.00 0.00 52 1003.1
20260504221601 43 135 6.0 13.0 0.00 0.00 0.00 52 1003.0
20260504220601 43 110 3.0 12.0 0.00 0.00 0.00 52 1002.9
20260504220101 43 138 5.0 12.0 0.00 0.00 0.00 51 1002.9
20260504215602 44 93 3.0 12.0 0.00 0.00 0.00 50 1002.9
20260504215101 44 155 3.0 13.0 0.00 0.00 0.00 51 1002.9
20260504214601 44 75 7.0 13.0 0.00 0.00 0.00 51 1002.9
20260504213101 43 153 4.0 12.0 0.00 0.00 0.00 52 1002.7
20260504212600 44 140 1.0 9.0 0.00 0.00 0.00 52 1002.7
20260504212102 44 199 3.0 11.0 0.00 0.00 0.00 51 1002.8
20260504211606 44 119 4.0 14.0 0.00 0.00 0.00 52 1002.6
20260504211105 43 162 5.0 14.0 0.00 0.00 0.00 52 1002.3
20260504205603 44 164 5.0 10.0 0.00 0.00 0.00 51 1002.2
20260504204105 43 166 4.0 12.0 0.00 0.00 0.00 50 1002.3
20260504203104 44 154 4.0 13.0 0.00 0.00 0.00 49 1002.2
20260504202600 47 81 10.0 12.0 0.00 0.00 0.00 50 1002.1
20260504202100 46 158 4.0 11.0 0.00 0.00 0.00 47 1002.3
20260504201601 45 104 2.0 11.0 0.00 0.00 0.00 50 1002.2
20260504201101 43 155 3.0 14.0 0.00 0.00 0.00 51 1002.2
20260504200603 43 66 6.0 14.0 0.00 0.00 0.00 53 1002.2
20260504195602 44 96 3.0 17.0 0.00 0.00 0.00 55 1002.2
20260504195101 42 111 9.0 17.0 0.00 0.00 0.00 53 1001.9
20260504194601 45 103 2.0 16.0 0.00 0.00 0.00 53 1002.0
20260504194103 44 156 7.0 16.0 0.00 0.00 0.00 54 1002.1
20260504193601 42 138 5.0 16.0 0.00 0.00 0.00 56 1002.2
20260504193103 42 148 7.0 16.0 0.00 0.00 0.00 58 1002.2
20260504192601 42 138 5.0 14.0 0.00 0.00 0.00 58 1002.2
20260504191600 41 131 3.0 13.0 0.00 0.00 0.00 61 1002.1
20260504191103 40 124 4.0 15.0 0.00 0.00 0.00 61 1002.1
20260504190601 40 174 5.0 15.0 0.00 0.00 0.00 62 1002.2
20260504185600 41 139 4.0 15.0 0.00 0.00 0.00 62 1002.0
20260504185100 41 151 4.0 15.0 0.00 0.00 0.00 62 1001.8
20260504184602 41 149 3.0 12.0 0.00 0.00 0.00 64 1001.9
20260504183605 42 127 2.0 11.0 0.00 0.00 0.00 62 1001.7
20260504183103 41 144 4.0 17.0 0.00 0.00 0.00 62 1001.6
20260504182604 42 120 3.0 17.0 0.00 0.00 0.00 67 1001.6
20260504182103 41 155 4.0 14.0 0.00 0.00 0.00 65 1001.7
20260504181604 41 49 1.0 12.0 0.00 0.00 0.00 65 1001.1
20260504181104 42 133 3.0 13.0 0.00 0.00 0.00 66 1001.4
20260504175604 42 166 4.0 9.0 0.00 0.00 0.00 66 1000.9
20260504174602 41 154 6.0 19.0 0.00 0.00 0.00 70 1001.2
20260504174102 40 125 4.0 19.0 0.00 0.00 0.00 71 1001.1
20260504173604 40 133 2.0 11.0 0.00 0.00 0.00 73 1001.2
20260504172601 40 134 4.0 15.0 0.00 0.00 0.00 72 1001.4
20260504172101 39 144 4.0 17.0 0.00 0.00 0.00 75 1001.1
20260504171102 40 125 4.0 10.0 0.00 0.00 0.00 73 1000.8
20260504170601 40 158 4.0 18.0 0.00 0.00 0.00 76 1000.8